Weather History for Pineville, WV

Change the Weather History Date:

Thursday, September 13, 2012

  Actual Average (KBKW) Record (KBKW)
Temperature  
Mean Temperature 68 °F 64 °F  
Max Temperature 81 °F 74 °F 93 °F (1936)
Min Temperature 55 °F 55 °F 32 °F (1940)
Degree Days  
Heating Degree Days 0 3  
Month to date heating degree days 23  
Since 1 July heating degree days 44  
Cooling Degree Days 3 2  
Month to date cooling degree days 38  
Year to date cooling degree days 531  
Growing Degree Days 18 (Base 50)    
Moisture  
Dew Point 60 °F    
Average Humidity 85    
Maximum Humidity 100    
Minimum Humidity 42    
Precipitation  
Precipitation 0.00 in 0.10 in 2.49 in (1966)
Month to date precipitation 1.30  
Year to date precipitation 30.96  
Snow  
Snow 0.00 in - - ()
Month to date snowfall  
Since 1 September snowfall  
Snow Depth -    
Sea Level Pressure  
Sea Level Pressure 30.38 in    
Wind  
Wind Speed - (North)    
Max Wind Speed -    
Max Gust Speed -    
Visibility 8 miles    
Events Fog    
T = Trace of Precipitation, MM = Missing Value Source: NWS Daily Summary

Daily Weather History Graph

Daily Weather History Graph

Search for Another Location

Airport:

Trip Planner

Search our weather history database for the weather conditions in past years. The results will help you decide how hot, cold, wet, or windy it might be!

Date:

Astronomy

Sep. 13, 2012 Rise Set
Actual Time 7:06 AM EDT 7:36 PM EDT
Civil Twilight 6:40 AM EDT 8:02 PM EDT
Nautical Twilight 6:09 AM EDT 8:33 PM EDT
Astronomical Twilight 5:37 AM EDT 9:05 PM EDT
Moon 4:27 AM EDT (9/13) 5:56 PM EDT (9/13)
Length of Visible Light 13h 22m
Length of Day
12h 29m
Waning Crescent, 7% of the Moon is Illuminated
Sep 13
Waning Crescent
Sep 15
New
Sep 22
First Quarter
Sep 29
Full
Oct 8
Last Quarter

Hourly Weather History & Observations

Time (EDT) Temp. Heat Index Dew Point Humidity Pressure Visibility Wind Dir Wind Speed Gust Speed Precip Events Conditions
12:15 AM 59.5 °F - 59.5 °F 100% 30.39 in 5.0 mi North - - N/A   Clear
12:35 AM 59.2 °F - 59.2 °F 100% 30.39 in 4.0 mi North - - N/A   Clear
12:55 AM 59.0 °F - 59.0 °F 100% 30.39 in 4.0 mi North - - N/A   Clear
1:15 AM 58.6 °F - 58.6 °F 100% 30.39 in 4.0 mi North - - N/A   Clear
1:35 AM 58.1 °F - 58.1 °F 100% 30.40 in 4.0 mi North - - N/A   Clear
1:55 AM 57.4 °F - 57.4 °F 100% 30.40 in 5.0 mi North - - N/A   Clear
2:15 AM 57.6 °F - 57.6 °F 100% 30.40 in 5.0 mi North - - N/A   Clear
2:35 AM 57.4 °F - 57.4 °F 100% 30.40 in 4.0 mi North - - N/A   Clear
2:55 AM 57.2 °F - 57.2 °F 100% 30.39 in 4.0 mi North - - N/A   Clear
3:15 AM 56.7 °F - 56.7 °F 100% 30.39 in 4.0 mi North - - N/A   Clear
3:35 AM 56.7 °F - 56.7 °F 100% 30.40 in 5.0 mi North - - N/A   Clear
3:55 AM 56.3 °F - 56.3 °F 100% 30.39 in 7.0 mi North - - N/A   Clear
4:15 AM 56.1 °F - 56.1 °F 100% 30.39 in 5.0 mi North - - N/A   Clear
4:35 AM 56.5 °F - 56.5 °F 100% 30.39 in 4.0 mi North - - N/A   Mostly Cloudy
4:55 AM 56.1 °F - 56.1 °F 100% 30.39 in 7.0 mi North - - N/A   Overcast
5:15 AM 56.1 °F - 56.1 °F 100% 30.40 in 2.0 mi North - - N/A   Overcast
5:35 AM 56.3 °F - 56.3 °F 100% 30.41 in 1.2 mi North - - N/A   Overcast
5:55 AM 55.9 °F - 55.9 °F 100% 30.41 in 2.0 mi North - - N/A   Overcast
6:15 AM 55.6 °F - 55.6 °F 100% 30.42 in 5.0 mi North - - N/A   Overcast
6:35 AM 56.3 °F - 56.3 °F 100% 30.42 in 0.8 mi North - - N/A   Overcast
6:55 AM 56.3 °F - 56.3 °F 100% 30.43 in 0.5 mi North - - N/A Fog Fog
7:15 AM 55.9 °F - 55.9 °F 100% 30.43 in 0.8 mi North - - N/A   Overcast
7:35 AM 56.3 °F - 56.3 °F 100% 30.44 in 0.5 mi North - - N/A Fog Fog
7:55 AM 56.3 °F - 56.3 °F 100% 30.44 in 0.5 mi North - - N/A Fog Fog
8:15 AM 56.7 °F - 56.7 °F 100% 30.44 in 0.2 mi North - - N/A Fog Fog
8:35 AM 57.2 °F - 57.2 °F 100% 30.44 in 1.0 mi North - - N/A   Overcast
8:55 AM 58.1 °F - 58.1 °F 100% 30.44 in 10.0 mi North - - N/A   Scattered Clouds
9:15 AM 59.9 °F - 59.9 °F 100% 30.45 in 10.0 mi North - - N/A   Clear
9:35 AM 62.6 °F - 62.2 °F 99% 30.45 in 10.0 mi North - - N/A   Clear
9:55 AM 66.4 °F - 61.7 °F 85% 30.45 in 10.0 mi North - - N/A   Clear
10:15 AM 67.8 °F - 61.9 °F 81% 30.45 in 10.0 mi North - - N/A   Clear
10:35 AM 70.2 °F - 61.9 °F 75% 30.45 in 10.0 mi North - - N/A   Clear
10:55 AM 72.5 °F - 61.5 °F 68% 30.44 in 10.0 mi North - - N/A   Clear
11:15 AM 73.4 °F - 60.8 °F 65% 30.44 in 10.0 mi North - - N/A   Clear
11:35 AM 74.1 °F - 61.2 °F 64% 30.44 in 10.0 mi North - - N/A   Clear
11:55 AM 74.3 °F - 60.4 °F 62% 30.43 in 10.0 mi North - - N/A   Scattered Clouds
12:15 PM 75.6 °F - 57.7 °F 54% 30.42 in 10.0 mi North - - N/A   Clear
12:35 PM 75.6 °F - 58.1 °F 55% 30.41 in 10.0 mi North - - N/A   Clear
12:55 PM 76.8 °F - 58.6 °F 53% 30.41 in 10.0 mi North - - N/A   Clear
1:15 PM 77.7 °F - 57.7 °F 50% 30.40 in 10.0 mi North - - N/A   Clear
1:35 PM 77.7 °F - 57.4 °F 49% 30.39 in 10.0 mi North - - N/A   Clear
1:55 PM 78.1 °F - 57.2 °F 49% 30.38 in 10.0 mi North - - N/A   Clear
2:15 PM 79.5 °F - 55.0 °F 43% 30.37 in 10.0 mi North - - N/A   Clear
2:35 PM 80.2 °F 80.4 °F 56.5 °F 44% 30.36 in 10.0 mi North - - N/A   Clear
2:55 PM 80.4 °F 80.4 °F 55.2 °F 42% 30.35 in 10.0 mi North - - N/A   Clear
3:15 PM 81.5 °F 81.6 °F 58.1 °F 45% 30.35 in 10.0 mi North - - N/A   Clear
3:35 PM 80.4 °F 80.5 °F 55.8 °F 43% 30.34 in 10.0 mi North - - N/A   Clear
3:55 PM 77.2 °F - 63.5 °F 63% 30.33 in 10.0 mi North - - N/A   Clear
4:15 PM 76.5 °F - 64.9 °F 67% 30.33 in 10.0 mi North - - N/A   Clear
4:35 PM 77.0 °F - 65.8 °F 68% 30.33 in 10.0 mi North - - N/A   Clear
4:55 PM 75.6 °F - 64.9 °F 69% 30.32 in 10.0 mi North - - N/A   Clear
5:15 PM 75.7 °F - 63.9 °F 66% 30.32 in 10.0 mi North - - N/A   Clear
5:35 PM 75.6 °F - 66.6 °F 74% 30.32 in 10.0 mi North - - N/A   Clear
5:55 PM 73.4 °F - 65.8 °F 77% 30.32 in 10.0 mi North - - N/A   Clear
6:15 PM 71.6 °F - 66.9 °F 85% 30.32 in 10.0 mi North - - N/A   Clear
6:35 PM 70.5 °F - 66.7 °F 88% 30.32 in 10.0 mi North - - N/A   Clear
6:55 PM 69.8 °F - 66.2 °F 88% 30.32 in 10.0 mi North - - N/A   Clear
7:15 PM 68.4 °F - 64.8 °F 88% 30.32 in 10.0 mi North - - N/A   Clear
7:35 PM 66.6 °F - 64.4 °F 93% 30.32 in 10.0 mi North - - N/A   Clear
7:55 PM 65.3 °F - 63.9 °F 95% 30.32 in 10.0 mi North - - N/A   Clear
8:15 PM 64.0 °F - 63.1 °F 97% 30.33 in 10.0 mi North - - N/A   Clear
8:35 PM 63.3 °F - 62.6 °F 97% 30.33 in 10.0 mi North - - N/A   Clear
8:55 PM 62.2 °F - 61.9 °F 99% 30.33 in 10.0 mi North - - N/A   Clear
9:15 PM 61.9 °F - 61.5 °F 99% 30.34 in 10.0 mi North - - N/A   Clear
9:35 PM 61.7 °F - 61.7 °F 100% 30.34 in 10.0 mi North - - N/A   Clear
9:55 PM 61.7 °F - 61.5 °F 99% 30.35 in 10.0 mi North - - N/A   Clear
10:15 PM 61.2 °F - 61.0 °F 99% 30.35 in 10.0 mi North - - N/A   Clear
10:35 PM 61.0 °F - 61.0 °F 100% 30.36 in 7.0 mi North - - N/A   Clear
10:55 PM 60.1 °F - 60.1 °F 100% 30.35 in 7.0 mi North - - N/A   Clear
11:15 PM 59.9 °F - 59.9 °F 100% 30.36 in 10.0 mi North - - N/A   Clear
11:35 PM 59.5 °F - 59.5 °F 100% 30.36 in 7.0 mi North - - N/A   Clear
11:55 PM 58.6 °F - 58.6 °F 100% 30.37 in 10.0 mi North - - N/A   Clear